KE7JVX-3 Weather Reports


Display with metric or nautical units.
time (UTC)temp
F
wind
direction
speed
MPH
gust
MPH
rain 1hr
in
rain 24hr
in
rain mn
in
humidity
%
barometer
mb
20260506204428 48 283 2.0 8.0 0.00 0.00 0.00 33 1011.8
20260506203720 46 322 2.0 10.0 0.00 0.00 0.00 34 1011.7
20260506203429 46 322 2.0 10.0 0.00 0.00 0.00 34 1011.7
20260506202428 46 243 3.0 15.0 0.00 0.00 0.00 34 1011.7
20260506201745 47 252 7.0 15.0 0.00 0.00 0.00 34 1011.7
20260506201429 47 252 7.0 15.0 0.00 0.00 0.00 34 1011.7
20260506200428 46 263 4.0 18.0 0.00 0.00 0.00 38 1011.7
20260506195430 46 259 7.0 13.0 0.00 0.00 0.00 35 1011.7
20260506194428 46 243 3.0 9.0 0.00 0.00 0.00 36 1011.8
20260506193428 46 249 2.0 10.0 0.00 0.00 0.00 40 1011.8
20260506192428 46 269 4.0 9.0 0.00 0.00 0.00 37 1011.8
20260506191429 45 240 6.0 11.0 0.00 0.00 0.00 40 1011.8
20260506190428 45 269 3.0 13.0 0.00 0.00 0.00 43 1011.7
20260506185428 45 273 6.0 11.0 0.00 0.00 0.00 41 1011.7
20260506184428 44 256 3.0 10.0 0.00 0.00 0.00 42 1011.7
20260506183434 44 262 3.0 9.0 0.00 0.00 0.00 43 1011.7
20260506182428 43 0 0.0 4.0 0.00 0.00 0.00 44 1011.8
20260506181428 42 309 3.0 9.0 0.00 0.00 0.00 43 1011.8
20260506180428 41 272 1.0 8.0 0.00 0.00 0.00 45 1011.7
20260506175428 42 282 2.0 9.0 0.00 0.00 0.00 48 1011.7
20260506174428 41 276 2.0 10.0 0.00 0.00 0.00 47 1011.7
20260506173428 40 304 2.0 7.0 0.00 0.00 0.00 49 1011.6
20260506172428 40 251 4.0 9.0 0.00 0.00 0.00 49 1011.5
20260506171428 40 274 4.0 8.0 0.00 0.00 0.00 53 1011.4
20260506170428 40 265 3.0 8.0 0.00 0.00 0.00 50 1011.3
20260506165428 40 192 2.0 9.0 0.00 0.00 0.00 52 1011.3
20260506164428 39 258 1.0 7.0 0.00 0.00 0.00 54 1011.3
20260506163429 39 235 2.0 7.0 0.00 0.00 0.00 50 1011.2
20260506162428 39 228 1.0 8.0 0.00 0.00 0.00 53 1011.1
20260506161428 39 220 1.0 4.0 0.00 0.00 0.00 53 1011.0
20260506160428 39 0 0.0 7.0 0.00 0.00 0.00 51 1011.0
20260506155428 39 171 2.0 6.0 0.00 0.00 0.00 50 1010.9
20260506154429 39 148 1.0 7.0 0.00 0.00 0.00 48 1010.8
20260506153429 39 0 0.0 3.0 0.00 0.00 0.00 45 1010.7
20260506152429 39 0 0.0 2.0 0.00 0.00 0.00 46 1010.8
20260506151431 38 0 0.0 3.0 0.00 0.01 0.00 41 1010.7
20260506150431 38 0 0.0 5.0 0.00 0.04 0.00 43 1010.5
20260506145428 38 0 0.0 6.0 0.00 0.08 0.00 40 1010.6
20260506144428 37 58 1.0 7.0 0.00 0.11 0.00 49 1010.4
20260506143428 36 313 1.0 4.0 0.00 0.15 0.00 46 1010.4
20260506142428 35 0 0.0 9.0 0.00 0.22 0.00 54 1010.3
20260506141428 35 308 2.0 6.0 0.00 0.24 0.00 53 1010.2
20260506140428 35 322 3.0 8.0 0.00 0.29 0.00 53 1010.2
20260506135428 35 349 3.0 10.0 0.00 0.30 0.00 54 1010.1
20260506134428 34 354 4.0 10.0 0.00 0.32 0.00 54 1010.0
20260506133428 34 317 5.0 10.0 0.00 0.32 0.00 54 1009.9
20260506132428 34 319 5.0 9.0 0.00 0.32 0.00 54 1009.8
20260506131428 33 338 4.0 9.0 0.00 0.33 0.00 56 1009.8
20260506130428 33 326 6.0 11.0 0.00 0.34 0.00 56 1009.7
20260506125428 33 315 6.0 12.0 0.00 0.37 0.00 56 1009.6
20260506124428 32 311 9.0 14.0 0.00 0.38 0.00 56 1009.5
20260506123428 32 309 9.0 13.0 0.00 0.39 0.00 57 1009.5
20260506122428 33 306 10.0 16.0 0.00 0.40 0.00 56 1009.3
20260506121428 32 314 10.0 14.0 0.00 0.40 0.00 57 1009.3
20260506120428 32 309 9.0 15.0 0.00 0.41 0.00 58 1009.2
20260506115428 32 302 10.0 16.0 0.00 0.41 0.00 57 1009.2
20260506114758 32 309 9.0 14.0 0.00 0.41 0.00 58 1009.4
20260506114428 32 309 9.0 14.0 0.00 0.41 0.00 58 1009.4
20260506113639 32 304 9.0 15.0 0.00 0.41 0.00 57 1009.2
20260506113428 32 304 9.0 15.0 0.00 0.41 0.00 57 1009.2
20260506112428 32 300 9.0 17.0 0.00 0.41 0.00 58 1009.2
20260506111546 32 300 11.0 16.0 0.00 0.41 0.00 57 1009.2
20260506111428 32 300 11.0 16.0 0.00 0.41 0.00 57 1009.2
20260506110539 33 300 11.0 16.0 0.00 0.41 0.00 57 1009.1
20260506110428 33 300 11.0 16.0 0.00 0.41 0.00 57 1009.1
20260506105433 33 294 10.0 16.0 0.00 0.41 0.00 58 1009.1
20260506104429 33 302 11.0 16.0 0.00 0.42 0.00 57 1009.1
20260506103429 33 296 10.0 16.0 0.00 0.42 0.00 57 1009.0
20260506102428 33 302 11.0 18.0 0.00 0.42 0.00 57 1008.9
20260506101430 33 298 12.0 18.0 0.00 0.43 0.00 57 1008.9
20260506100428 33 293 11.0 21.0 0.00 0.43 0.00 57 1008.8
20260506095630 33 287 15.0 25.0 0.00 0.43 0.00 57 1008.7
20260506095428 33 287 15.0 25.0 0.00 0.43 0.00 57 1008.7
20260506094428 33 291 13.0 25.0 0.00 0.43 0.00 57 1008.7
20260506093430 33 279 13.0 23.0 0.00 0.43 0.00 58 1008.6
20260506092610 33 286 16.0 23.0 0.00 0.44 0.00 59 1008.6
20260506092428 33 286 16.0 23.0 0.00 0.44 0.00 59 1008.6
20260506091804 33 284 14.0 23.0 0.00 0.44 0.00 59 1008.7
20260506091428 33 284 14.0 23.0 0.00 0.44 0.00 59 1008.7
20260506090720 33 287 14.0 22.0 0.00 0.45 0.00 59 1008.7
20260506090428 33 287 14.0 22.0 0.00 0.45 0.00 59 1008.7
20260506085428 33 290 12.0 23.0 0.00 0.45 0.00 60 1008.6
20260506084709 33 287 9.0 17.0 0.00 0.45 0.00 60 1008.7
20260506084428 33 287 9.0 17.0 0.00 0.45 0.00 60 1008.7
20260506083428 33 297 11.0 20.0 0.00 0.45 0.00 59 1008.8
20260506082428 33 290 11.0 17.0 0.00 0.46 0.00 58 1008.8
20260506082031 33 291 11.0 20.0 0.00 0.46 0.00 56 1008.9
20260506081428 33 291 11.0 20.0 0.00 0.46 0.00 56 1008.9
20260506080428 33 287 9.0 16.0 0.00 0.46 0.46 56 1008.9
20260506073428 33 292 13.0 20.0 0.00 0.48 0.46 53 1009.0
20260506072428 34 293 13.0 19.0 0.00 0.48 0.46 51 1009.1
20260506071430 34 290 11.0 20.0 0.00 0.48 0.46 52 1009.0
20260506070428 34 299 10.0 15.0 0.00 0.48 0.46 52 1009.0
20260506062428 34 302 8.0 15.0 0.00 0.48 0.46 56 1009.1
20260506061734 34 310 7.0 13.0 0.00 0.48 0.46 56 1009.2
20260506061428 34 310 7.0 13.0 0.00 0.48 0.46 56 1009.2
20260506060623 34 298 9.0 13.0 0.00 0.48 0.46 56 1009.0
20260506060429 34 298 9.0 13.0 0.00 0.48 0.46 56 1009.0
20260506050810 34 301 12.0 20.0 0.00 0.48 0.46 55 1008.6
20260506050428 34 301 12.0 20.0 0.00 0.48 0.46 55 1008.6
20260506044429 35 302 11.0 17.0 0.00 0.48 0.46 57 1008.5
20260506043718 35 305 10.0 18.0 0.00 0.48 0.46 56 1008.6
20260506043428 35 305 10.0 18.0 0.00 0.48 0.46 56 1008.6
20260506042428 35 304 13.0 19.0 0.00 0.48 0.46 57 1008.6
20260506041729 35 301 12.0 19.0 0.00 0.48 0.46 56 1008.5
20260506041428 35 301 12.0 19.0 0.00 0.48 0.46 56 1008.5
20260506040428 35 292 15.0 25.0 0.00 0.48 0.46 56 1008.3
20260506035750 35 293 14.0 29.0 0.00 0.48 0.46 56 1008.2
20260506035428 35 293 14.0 29.0 0.00 0.48 0.46 56 1008.2
20260506034741 35 291 16.0 25.0 0.00 0.48 0.46 56 1008.1
20260506034428 35 291 16.0 25.0 0.00 0.48 0.46 56 1008.1
20260506033603 35 297 15.0 21.0 0.00 0.48 0.46 56 1008.0
20260506033428 35 297 15.0 21.0 0.00 0.48 0.46 56 1008.0
20260506032758 35 297 15.0 21.0 0.00 0.48 0.46 56 1007.9
20260506032428 35 297 15.0 21.0 0.00 0.48 0.46 56 1007.9
20260506031428 35 305 15.0 23.0 0.00 0.48 0.46 57 1007.9
20260506030647 35 305 14.0 22.0 0.00 0.48 0.46 58 1007.9
20260506030428 35 305 14.0 22.0 0.00 0.48 0.46 58 1007.9
20260506025428 35 301 14.0 24.0 0.00 0.48 0.46 58 1007.7
20260506024431 35 288 17.0 28.0 0.00 0.48 0.46 58 1007.4
20260506023701 35 287 21.0 33.0 0.00 0.48 0.46 58 1007.2
20260506023428 35 287 21.0 33.0 0.00 0.48 0.46 58 1007.2
20260506021927 36 279 18.0 29.0 0.00 0.48 0.46 59 1007.0
20260506020927 36 282 20.0 28.0 0.00 0.48 0.46 60 1006.9
20260506020141 36 277 19.0 30.0 0.00 0.48 0.46 59 1007.0
20260506015927 36 277 19.0 30.0 0.00 0.48 0.46 59 1007.0
20260506014927 36 275 16.0 28.0 0.00 0.48 0.46 59 1006.9
20260506013927 37 286 13.0 27.0 0.00 0.48 0.46 58 1006.9
20260506013232 37 272 13.0 27.0 0.00 0.48 0.46 59 1006.8
20260506012927 37 272 13.0 27.0 0.00 0.48 0.46 59 1006.8
20260506012232 38 274 15.0 28.0 0.00 0.48 0.46 60 1006.8
20260506011927 38 274 15.0 28.0 0.00 0.48 0.46 60 1006.8
20260506011257 38 262 11.0 25.0 0.00 0.48 0.46 59 1006.8
20260506010927 38 262 11.0 25.0 0.00 0.48 0.46 59 1006.8
20260506010228 38 288 14.0 26.0 0.00 0.48 0.46 59 1006.8
20260506005927 38 288 14.0 26.0 0.00 0.48 0.46 59 1006.8
20260506004927 38 288 11.0 28.0 0.00 0.48 0.46 60 1006.7
20260506003927 38 276 13.0 24.0 0.00 0.48 0.46 62 1006.7
20260506002927 38 264 9.0 26.0 0.00 0.48 0.46 63 1006.7
20260506001927 38 259 17.0 25.0 0.00 0.48 0.46 65 1006.6
20260506000927 38 247 17.0 28.0 0.00 0.48 0.46 65 1006.6
20260505235927 38 246 16.0 28.0 0.00 0.48 0.46 63 1006.5
20260505234928 38 248 20.0 35.0 0.00 0.48 0.46 61 1006.4
20260505233929 39 252 24.0 35.0 0.00 0.48 0.46 59 1006.3
20260505232928 38 246 19.0 30.0 0.00 0.48 0.46 57 1006.4
20260505231927 38 259 25.0 36.0 0.00 0.48 0.46 53 1006.3
20260505230927 39 258 27.0 41.0 0.00 0.48 0.46 47 1006.0
20260505225927 39 253 24.0 40.0 0.00 0.48 0.46 50 1006.1
20260505224930 41 250 25.0 42.0 0.00 0.48 0.46 52 1006.0
20260505223926 40 255 25.0 50.0 0.00 0.48 0.46 53 1006.1
20260505222926 39 258 22.0 39.0 0.00 0.48 0.46 56 1006.2
20260505221926 38 252 21.0 43.0 0.00 0.48 0.46 67 1006.2
20260505220926 37 250 17.0 33.0 0.00 0.48 0.46 76 1006.4
20260505215928 38 258 25.0 39.0 0.00 0.48 0.46 78 1006.4
20260505214927 37 258 20.0 43.0 0.00 0.48 0.46 79 1006.5
20260505213927 36 260 20.0 35.0 0.00 0.48 0.46 79 1006.6
20260505212928 36 257 22.0 39.0 0.00 0.48 0.46 79 1006.6
20260505211927 36 247 21.0 36.0 0.00 0.48 0.46 79 1006.8
20260505210926 36 271 21.0 33.0 0.00 0.48 0.46 79 1006.8
20260505205928 36 256 20.0 31.0 0.00 0.48 0.46 79 1007.0